This demonstration page uses our WeatherBlox Daily Observations layout. Learn more.

Left ArrowRight Arrow

Hourly Observations for December 7, 2019

Temp ( °F °C ) Dew Point ( °F °C ) Humidity (%) Winds ( mph kmh ) Pressure ( in mb ) Visibility ( mi km ) Precip ( " mm )
12:56 am 00:56 Clear 31 -0.6 25 -3.9 79 79 SSW 14 22 30.26 1025 10 16 0.00 0.00
1:56 am 01:56 Clear 31 -0.6 27 -2.8 85 85 SSW 15 24 30.24 1024 10 16 0.00 0.00
2:56 am 02:56 Clear 30 -1.1 27 -2.8 88 88 SSW 16 26 30.23 1024 10 16 0.00 0.00
3:56 am 03:56 Clear 31 -0.6 28 -2.2 89 89 SSW 15 24 30.20 1023 10 16 0.00 0.00
4:56 am 04:56 Clear 32 0 29 -1.7 88 88 SW 14 22 30.21 1023 10 16 0.00 0.00
5:56 am 05:56 Clear 30 -1.1 28 -2.2 92 92 SSW 13 20 30.20 1023 10 16 0.00 0.00
6:56 am 06:56 Clear 29 -1.7 27 -2.8 92 92 SSW 13 20 30.19 1022 10 16 0.00 0.00
7:56 am 07:56 Sunny 29 -1.7 27 -2.8 92 92 SSW 14 22 30.17 1022 9 14 0.00 0.00
8:56 am 08:56 Sunny 31 -0.6 29 -1.7 92 92 SSW 12 19 30.16 1021 9 14 0.00 0.00
9:56 am 09:56 Sunny 36 2.2 30 -1.1 79 79 SSW 17 28 30.13 1020 10 16 0.00 0.00
10:56 am 10:56 Sunny 40 4.4 32 0 73 73 SSW 17 28 30.11 1020 10 16 0.00 0.00
11:56 am 11:56 Sunny 42 5.6 33 0.6 71 71 S 20 31 30.06 1018 10 16 0.00 0.00
12:56 pm 12:56 Sunny 47 8.3 35 1.7 63 63 SSW 22 35 30.01 1016 10 16 0.00 0.00
1:56 pm 13:56 Sunny 49 9.4 36 2.2 61 61 S 22 35 29.96 1015 10 16 0.00 0.00
2:56 pm 14:56 Sunny 52 11.1 37 2.8 57 57 S 17 28 29.93 1014 10 16 0.00 0.00
3:56 pm 15:56 Sunny 52 11.1 37 2.8 57 57 S 16 26 29.91 1013 10 16 0.00 0.00
4:56 pm 16:56 Sunny 47 8.3 37 2.8 69 69 S 14 22 29.91 1013 10 16 0.00 0.00
5:56 pm 17:56 Clear 43 6.1 35 1.7 74 74 SSW 7 11 29.93 1014 10 16 0.00 0.00
6:56 pm 18:56 Clear 44 6.7 35 1.7 71 71 SSW 9 15 29.93 1014 10 16 0.00 0.00
7:56 pm 19:56 Clear 43 6.1 35 1.7 74 74 SSW 13 20 29.92 1013 10 16 0.00 0.00
8:56 pm 20:56 Clear 42 5.6 35 1.7 76 76 SSW 15 24 29.91 1013 10 16 0.00 0.00
9:56 pm 21:56 Clear 40 4.4 34 1.1 79 79 SSW 15 24 29.89 1012 10 16 0.00 0.00
10:56 pm 22:56 Clear 39 3.9 33 0.6 79 79 SSW 13 20 29.88 1012 10 16 0.00 0.00
11:56 pm 23:56 Clear 38 3.3 33 0.6 83 83 SW 15 24 29.86 1011 10 16 0.00 0.00

Powered by AerisWeather